WMT9DB GCTS-LIMC

Flight info

Callsign WMT9DB
Flight time 3h 56m
Altitude 36000
Route KORAL UG5 SONSO DCT NIRAL UN871 OSDAM UM985 BARPA DCT XAVIR DCT PIMOS DCT RIXUR DCT UNTOS DCT ROLAS DCT TOSGA DCT RESTU DCT ALT DCT SUMMO DCT MITOS DCT BRUNO DCT RUXET DCT IZA DCT TUKRO DCT ASMOT N851 ISTER DCT NIVDA DCT OMEDA DCT RAPUR/N0455F300 DCT TORTU DCT ANAKI P860 DEVOX
Aircraft A21N/M-SDE2E3FGHIRWXY/LB1

Departure

Time 2026-04-30 14:44
Airport Tenerife Sur Airport (GCTS)

Arrival

Time 2026-04-30 18:41
Airport Milan Malpensa International Airport (LIMC)
Time Latitude Longitude Altitude Speed Heading
2026-04-30 14:05 28.04787 -16.57454 231 ft 0 kts 338°
2026-04-30 14:35 28.04751 -16.57434 231 ft 4 kts 323°
2026-04-30 14:35 28.04732 -16.57413 231 ft 4 kts 300°
2026-04-30 14:35 28.04727 -16.57388 230 ft 3 kts 251°
2026-04-30 14:36 28.04729 -16.57381 230 ft 0 kts 249°
2026-04-30 14:38 28.04727 -16.57386 230 ft 4 kts 249°
2026-04-30 14:38 28.04701 -16.57457 230 ft 10 kts 246°
2026-04-30 14:38 28.04667 -16.57479 229 ft 6 kts 190°
2026-04-30 14:39 28.04627 -16.57470 228 ft 6 kts 153°
2026-04-30 14:39 28.04589 -16.57449 228 ft 6 kts 154°
2026-04-30 14:39 28.04590 -16.57370 229 ft 16 kts 66°
2026-04-30 14:40 28.04644 -16.57223 228 ft 12 kts 69°
2026-04-30 14:40 28.04695 -16.57095 230 ft 18 kts 61°
2026-04-30 14:40 28.04727 -16.57009 228 ft 9 kts 70°
2026-04-30 14:40 28.04761 -16.56908 226 ft 18 kts 68°
2026-04-30 14:41 28.04818 -16.56747 225 ft 23 kts 69°
2026-04-30 14:41 28.04867 -16.56603 227 ft 20 kts 68°
2026-04-30 14:41 28.04924 -16.56441 224 ft 21 kts 68°
2026-04-30 14:41 28.04975 -16.56292 224 ft 21 kts 68°
2026-04-30 14:42 28.05034 -16.56124 224 ft 25 kts 68°
2026-04-30 14:42 28.05088 -16.55966 226 ft 6 kts 72°
2026-04-30 14:42 28.05093 -16.55909 224 ft 10 kts 99°
2026-04-30 14:42 28.05029 -16.55845 224 ft 16 kts 166°
2026-04-30 14:43 28.04944 -16.55861 223 ft 7 kts 213°
2026-04-30 14:43 28.04921 -16.55896 221 ft 0 kts 250°
2026-04-30 14:43 28.04918 -16.55905 221 ft 11 kts 250°
2026-04-30 14:43 28.04806 -16.56226 218 ft 77 kts 248°
2026-04-30 14:44 28.04527 -16.57024 204 ft 140 kts 248°
2026-04-30 14:44 28.04121 -16.58221 417 ft 169 kts 251°
2026-04-30 14:44 28.03743 -16.59405 1375 ft 157 kts 243°
2026-04-30 14:44 28.03234 -16.60514 2062 ft 161 kts 245°
2026-04-30 14:45 28.02824 -16.61723 2555 ft 170 kts 247°
2026-04-30 14:45 28.02380 -16.63025 3004 ft 186 kts 248°
2026-04-30 14:45 28.01855 -16.64462 3304 ft 213 kts 245°
2026-04-30 14:45 28.01210 -16.66104 3557 ft 242 kts 243°
2026-04-30 14:46 28.00098 -16.67520 4270 ft 244 kts 210°
2026-04-30 14:46 27.98485 -16.68016 4828 ft 245 kts 176°
2026-04-30 14:46 27.96845 -16.67500 5320 ft 247 kts 155°
2026-04-30 14:46 27.95271 -16.66677 5828 ft 252 kts 154°
2026-04-30 14:47 27.93667 -16.65848 6318 ft 255 kts 155°
2026-04-30 14:47 27.92029 -16.65023 6867 ft 259 kts 155°
2026-04-30 14:47 27.90575 -16.63855 7575 ft 263 kts 129°
2026-04-30 14:47 27.89753 -16.62012 8208 ft 269 kts 106°
2026-04-30 14:48 27.89553 -16.59871 8614 ft 283 kts 81°
2026-04-30 14:48 27.90146 -16.57710 9081 ft 293 kts 65°
2026-04-30 14:48 27.91007 -16.55596 9736 ft 297 kts 63°
2026-04-30 14:48 27.91884 -16.53459 10340 ft 306 kts 64°
2026-04-30 14:49 27.92794 -16.51201 10653 ft 324 kts 64°
2026-04-30 14:49 27.93747 -16.48807 10948 ft 343 kts 64°
2026-04-30 14:49 27.94744 -16.46274 11217 ft 362 kts 65°
2026-04-30 14:49 27.95785 -16.43601 11479 ft 380 kts 65°
2026-04-30 14:50 27.98006 -16.37876 11966 ft 413 kts 65°
2026-04-30 14:50 27.99169 -16.34874 12395 ft 419 kts 65°
2026-04-30 14:51 28.01524 -16.28769 13450 ft 427 kts 65°
2026-04-30 14:51 28.02702 -16.25708 13973 ft 431 kts 65°
2026-04-30 14:51 28.05120 -16.19424 14949 ft 439 kts 65°
2026-04-30 14:52 28.06346 -16.16243 15476 ft 444 kts 64°
2026-04-30 14:52 28.08853 -16.09778 16522 ft 452 kts 64°
2026-04-30 14:52 28.10117 -16.06492 17027 ft 457 kts 64°
2026-04-30 14:53 28.11524 -15.99412 17958 ft 471 kts 88°
2026-04-30 14:53 28.11339 -15.95687 18425 ft 475 kts 94°
2026-04-30 14:54 28.10774 -15.88205 19278 ft 484 kts 93°
2026-04-30 14:54 28.10273 -15.80549 20116 ft 491 kts 93°
2026-04-30 14:55 28.09745 -15.72774 20932 ft 498 kts 93°
2026-04-30 14:55 28.09472 -15.68839 21377 ft 502 kts 93°
2026-04-30 14:55 28.08936 -15.60880 22271 ft 511 kts 93°
2026-04-30 14:56 28.08378 -15.52814 23110 ft 518 kts 93°
2026-04-30 14:56 28.08340 -15.44651 23825 ft 518 kts 77°
2026-04-30 14:57 28.09322 -15.40751 24248 ft 511 kts 64°
2026-04-30 14:57 28.12889 -15.34007 25211 ft 499 kts 50°
2026-04-30 14:58 28.16820 -15.27537 26194 ft 497 kts 50°
2026-04-30 14:58 28.18771 -15.24320 26679 ft 494 kts 50°
2026-04-30 14:58 28.22653 -15.17914 27612 ft 492 kts 50°
2026-04-30 14:59 28.26463 -15.11502 28521 ft 489 kts 50°
2026-04-30 15:00 28.32170 -15.01939 29707 ft 485 kts 49°
2026-04-30 15:00 28.35931 -14.95604 30441 ft 483 kts 49°
2026-04-30 15:01 28.39688 -14.89290 31102 ft 482 kts 49°
2026-04-30 15:01 28.40903 -14.87240 31296 ft 481 kts 49°
2026-04-30 15:01 28.45269 -14.79861 31998 ft 480 kts 48°
2026-04-30 15:02 28.47132 -14.76708 32268 ft 480 kts 48°
2026-04-30 15:02 28.48990 -14.73554 32555 ft 479 kts 48°
2026-04-30 15:03 28.54555 -14.64111 33299 ft 478 kts 48°
2026-04-30 15:03 28.57620 -14.58898 33697 ft 477 kts 48°
2026-04-30 15:04 28.61317 -14.52633 34122 ft 476 kts 48°
2026-04-30 15:04 28.66832 -14.43231 34694 ft 475 kts 48°
2026-04-30 15:05 28.72342 -14.33815 35177 ft 476 kts 48°
2026-04-30 15:06 28.75988 -14.27575 35517 ft 476 kts 48°
2026-04-30 15:06 28.79658 -14.21296 35779 ft 476 kts 48°
2026-04-30 15:07 28.83324 -14.15011 36046 ft 476 kts 48°
2026-04-30 15:07 28.86981 -14.08724 36167 ft 475 kts 48°
2026-04-30 15:08 28.90621 -14.02441 36132 ft 474 kts 48°
2026-04-30 15:09 28.99696 -13.86797 36147 ft 470 kts 48°
2026-04-30 15:10 29.06875 -13.74386 36289 ft 470 kts 47°
2026-04-30 15:11 29.14148 -13.61968 36848 ft 468 kts 48°
2026-04-30 15:11 29.17745 -13.55793 37200 ft 464 kts 48°
2026-04-30 15:12 29.23080 -13.46638 37504 ft 463 kts 48°
2026-04-30 15:13 29.26660 -13.40474 37579 ft 466 kts 49°
2026-04-30 15:14 29.39388 -13.18554 37809 ft 476 kts 49°
2026-04-30 15:16 29.48523 -13.02703 38111 ft 479 kts 50°
2026-04-30 15:17 29.55837 -12.89989 38099 ft 476 kts 49°
2026-04-30 15:19 29.70365 -12.64594 38087 ft 474 kts 49°
2026-04-30 17:39 40.12054 4.75535 38060 ft 478 kts 45°
2026-04-30 17:42 40.33215 5.08945 38070 ft 477 kts 45°
2026-04-30 17:43 40.43775 5.25743 38097 ft 477 kts 45°
2026-04-30 17:44 40.56373 5.45936 38099 ft 476 kts 45°
2026-04-30 17:47 40.75302 5.76316 38110 ft 477 kts 45°
2026-04-30 17:48 40.89905 6.00081 38110 ft 477 kts 46°
2026-04-30 17:50 41.06537 6.27392 38121 ft 476 kts 45°
2026-04-30 17:52 41.18971 6.47985 38120 ft 477 kts 46°
2026-04-30 17:54 41.37789 6.78550 38110 ft 474 kts 45°
2026-04-30 17:56 41.54537 7.05703 38111 ft 473 kts 45°
2026-04-30 17:58 41.67004 7.26108 38120 ft 471 kts 45°
2026-04-30 18:00 41.83514 7.53309 38121 ft 471 kts 45°
2026-04-30 18:01 41.93784 7.70390 38120 ft 470 kts 45°
2026-04-30 18:02 42.00058 7.80467 38110 ft 460 kts 34°
2026-04-30 18:02 42.08449 7.85036 38123 ft 432 kts
2026-04-30 18:04 42.26102 7.90254 38120 ft 433 kts
2026-04-30 18:06 42.49577 7.97417 38120 ft 430 kts
2026-04-30 18:08 42.69035 8.03401 38135 ft 432 kts
2026-04-30 18:10 42.92246 8.10589 38151 ft 430 kts
2026-04-30 18:11 43.12669 8.16962 38172 ft 424 kts
2026-04-30 18:13 43.27078 8.21485 38190 ft 430 kts
2026-04-30 18:14 43.41639 8.26086 38201 ft 427 kts
2026-04-30 18:15 43.58918 8.31559 38219 ft 429 kts
2026-04-30 18:16 43.70520 8.35257 38220 ft 429 kts
2026-04-30 18:17 43.76278 8.37094 38216 ft 419 kts
2026-04-30 18:17 43.81932 8.38906 37155 ft 417 kts
2026-04-30 18:18 43.84756 8.39811 36431 ft 417 kts
2026-04-30 18:18 43.87578 8.40714 35719 ft 416 kts
2026-04-30 18:18 43.90407 8.41625 35018 ft 417 kts
2026-04-30 18:18 43.93238 8.42540 34285 ft 418 kts
2026-04-30 18:19 43.96088 8.43457 33431 ft 422 kts
2026-04-30 18:19 43.98962 8.44381 32740 ft 428 kts
2026-04-30 18:19 44.01876 8.45320 32052 ft 429 kts
2026-04-30 18:19 44.04744 8.46246 31339 ft 428 kts 10°
2026-04-30 18:20 44.07642 8.47183 30580 ft 427 kts
2026-04-30 18:20 44.10535 8.48119 29764 ft 427 kts
2026-04-30 18:20 44.13444 8.49059 28914 ft 428 kts 10°
2026-04-30 18:20 44.16338 8.49995 28067 ft 428 kts 10°
2026-04-30 18:21 44.19241 8.50939 27189 ft 428 kts 11°
2026-04-30 18:21 44.22145 8.51886 26250 ft 429 kts 11°
2026-04-30 18:21 44.25063 8.52834 25289 ft 430 kts 11°
2026-04-30 18:21 44.27942 8.53769 24429 ft 429 kts 12°
2026-04-30 18:22 44.30869 8.54720 23656 ft 424 kts 12°
2026-04-30 18:22 44.36564 8.56584 22359 ft 418 kts 12°
2026-04-30 18:22 44.39472 8.57529 21939 ft 437 kts 12°
2026-04-30 18:23 44.42399 8.58487 21435 ft 436 kts 12°
2026-04-30 18:23 44.45334 8.59449 20886 ft 430 kts 12°
2026-04-30 18:23 44.48215 8.60396 20280 ft 421 kts 12°
2026-04-30 18:23 44.51040 8.61328 19666 ft 413 kts 12°
2026-04-30 18:24 44.56539 8.63129 18436 ft 400 kts 12°
2026-04-30 18:24 44.59241 8.64016 17761 ft 398 kts 12°
2026-04-30 18:24 44.61929 8.64905 17151 ft 394 kts 12°
2026-04-30 18:25 44.64605 8.65790 16496 ft 403 kts 12°
2026-04-30 18:25 44.70070 8.67594 15525 ft 397 kts 12°
2026-04-30 18:25 44.72744 8.68481 14978 ft 392 kts 13°
2026-04-30 18:26 44.77991 8.70216 13960 ft 394 kts 13°
2026-04-30 18:26 44.80663 8.71097 13532 ft 393 kts 13°
2026-04-30 18:26 44.83272 8.71965 13035 ft 388 kts 13°
2026-04-30 18:27 44.88443 8.73684 12074 ft 370 kts 13°
2026-04-30 18:27 44.90891 8.74501 11792 ft 354 kts 13°
2026-04-30 18:28 44.95471 8.76031 11373 ft 322 kts 13°
2026-04-30 18:28 44.97598 8.76741 11195 ft 307 kts 13°
2026-04-30 18:28 45.01553 8.78059 10740 ft 283 kts 13°
2026-04-30 18:29 45.03463 8.78700 10174 ft 281 kts 13°
2026-04-30 18:29 45.09127 8.80597 8947 ft 279 kts 14°
2026-04-30 18:30 45.12911 8.81865 8225 ft 279 kts 14°
2026-04-30 18:30 45.16568 8.83096 7921 ft 255 kts 14°
2026-04-30 18:31 45.18224 8.83654 7981 ft 234 kts 14°
2026-04-30 18:31 45.21228 8.84283 7817 ft 212 kts 354°
2026-04-30 18:32 45.23876 8.83545 7660 ft 177 kts 350°
2026-04-30 18:32 45.25044 8.83212 7458 ft 167 kts 350°
2026-04-30 18:32 45.27301 8.82593 6969 ft 163 kts 351°
2026-04-30 18:33 45.28410 8.82289 6790 ft 165 kts 351°
2026-04-30 18:33 45.30673 8.81798 6543 ft 164 kts 355°
2026-04-30 18:33 45.31810 8.81629 6412 ft 164 kts 355°
2026-04-30 18:34 45.32941 8.81428 6255 ft 164 kts 353°
2026-04-30 18:34 45.35359 8.80946 5988 ft 208 kts 351°
2026-04-30 18:34 45.36751 8.80575 5806 ft 198 kts 350°
2026-04-30 18:35 45.38085 8.80214 5528 ft 192 kts 350°
2026-04-30 18:35 45.39385 8.79858 5234 ft 188 kts 350°
2026-04-30 18:35 45.40657 8.79510 4945 ft 184 kts 349°
2026-04-30 18:36 45.43104 8.78838 4405 ft 174 kts 349°
2026-04-30 18:36 45.44255 8.78522 4156 ft 167 kts 349°
2026-04-30 18:36 45.46433 8.77924 3701 ft 157 kts 349°
2026-04-30 18:37 45.47515 8.77626 3495 ft 156 kts 349°
2026-04-30 18:37 45.48580 8.77332 3309 ft 155 kts 349°
2026-04-30 18:37 45.49640 8.77041 3105 ft 155 kts 349°
2026-04-30 18:37 45.50665 8.76759 2908 ft 143 kts 349°
2026-04-30 18:38 45.51621 8.76495 2710 ft 137 kts 349°
2026-04-30 18:38 45.52543 8.76241 2513 ft 136 kts 349°
2026-04-30 18:38 45.53476 8.75984 2340 ft 136 kts 349°
2026-04-30 18:38 45.54410 8.75727 2155 ft 136 kts 349°
2026-04-30 18:39 45.55338 8.75471 1977 ft 136 kts 349°
2026-04-30 18:39 45.56267 8.75215 1797 ft 135 kts 349°
2026-04-30 18:39 45.57181 8.74963 1625 ft 134 kts 349°
2026-04-30 18:39 45.58096 8.74711 1443 ft 134 kts 349°
2026-04-30 18:40 45.59010 8.74464 1269 ft 133 kts 349°
2026-04-30 18:40 45.59919 8.74223 1116 ft 133 kts 349°
2026-04-30 18:40 45.60822 8.73957 936 ft 132 kts 348°
2026-04-30 18:40 45.61729 8.73706 782 ft 132 kts 348°
2026-04-30 18:41 45.62532 8.73492 745 ft 102 kts 351°
2026-04-30 18:41 45.63021 8.73342 740 ft 42 kts 338°
2026-04-30 18:41 45.63187 8.73200 742 ft 21 kts 309°
2026-04-30 18:41 45.63282 8.73031 742 ft 23 kts 304°
2026-04-30 18:42 45.63356 8.72874 741 ft 18 kts 303°
2026-04-30 18:42 45.63387 8.72507 742 ft 22 kts 261°
2026-04-30 18:42 45.63361 8.72280 744 ft 24 kts 254°
2026-04-30 18:45 45.62785 8.71793 742 ft 15 kts 168°
2026-04-30 18:45 45.62760 8.71801 742 ft 3 kts 156°
2026-04-30 18:45 45.62761 8.71839 741 ft 5 kts 80°
2026-04-30 18:46 45.62768 8.71891 742 ft 0 kts 79°